TimeCST,TemperatureF,Dew PointF,Humidity,Sea Level PressureIn,VisibilityMPH,Wind Direction,Wind SpeedMPH,Gust SpeedMPH,PrecipitationIn,Events,Conditions,WindDirDegrees,DateUTC
12:53 AM,23.0,19.4,86,30.19,10.0,WNW,6.9,-,N/A,,Clear,290,2013-02-28 06:53:00
1:53 AM,23.0,19.0,85,30.29,10.0,WNW,8.1,-,N/A,,Clear,290,2013-02-28 07:53:00
2:53 AM,23.0,19.0,85,30.29,10.0,WNW,8.1,-,N/A,,Clear,300,2013-02-28 08:53:00
3:53 AM,21.0,18.0,88,30.29,10.0,NW,5.8,-,N/A,,Clear,320,2013-02-28 09:53:00
4:53 AM,19.9,17.1,89,30.28,10.0,WNW,5.8,-,N/A,,Clear,290,2013-02-28 10:53:00
5:53 AM,18.0,15.1,88,30.30,10.0,NW,4.6,-,N/A,,Clear,310,2013-02-28 11:53:00
6:53 AM,16.0,12.9,88,30.32,10.0,NW,4.6,-,N/A,,Clear,310,2013-02-28 12:53:00
7:53 AM,17.6,14.0,86,30.22,10.0,NW,4.6,-,N/A,,Partly Cloudy,310,2013-02-28 13:53:00
8:53 AM,24.1,19.0,81,30.33,10.0,NW,5.8,-,N/A,,Clear,310,2013-02-28 14:53:00
9:53 AM,26.1,19.9,78,30.33,10.0,North,4.6,-,N/A,,Clear,10,2013-02-28 15:53:00
10:08 AM,26.6,21.2,80,30.23,10.0,North,4.6,-,N/A,,Partly Cloudy,350,2013-02-28 16:08:00
10:53 AM,28.0,21.9,78,30.32,10.0,North,4.6,-,N/A,,Scattered Clouds,360,2013-02-28 16:53:00
11:09 AM,28.4,21.2,74,30.23,10.0,North,4.6,-,N/A,,Mostly Cloudy,10,2013-02-28 17:09:00
11:19 AM,28.4,23.0,80,30.22,10.0,NNW,4.6,-,N/A,,Scattered Clouds,340,2013-02-28 17:19:00
11:53 AM,32.0,23.0,69,30.31,10.0,Calm,Calm,-,N/A,,Clear,0,2013-02-28 17:53:00
12:53 PM,36.0,24.1,62,30.29,10.0,Calm,Calm,-,N/A,,Clear,0,2013-02-28 18:53:00
1:53 PM,39.0,24.1,55,30.25,10.0,WNW,6.9,-,N/A,,Clear,300,2013-02-28 19:53:00
2:53 PM,39.9,25.0,55,30.23,10.0,WNW,8.1,-,N/A,,Clear,290,2013-02-28 20:53:00
3:53 PM,39.9,24.1,53,30.23,10.0,WSW,3.5,-,N/A,,Partly Cloudy,240,2013-02-28 21:53:00
4:53 PM,39.0,23.0,53,30.22,10.0,Calm,Calm,-,N/A,,Clear,0,2013-02-28 22:53:00
5:53 PM,37.0,26.1,65,30.24,10.0,ENE,5.8,-,N/A,,Clear,60,2013-02-28 23:53:00
6:53 PM,30.0,24.1,79,30.27,10.0,Calm,Calm,-,N/A,,Partly Cloudy,0,2013-03-01 00:53:00
7:53 PM,25.0,21.0,85,30.28,10.0,Calm,Calm,-,N/A,,Clear,0,2013-03-01 01:53:00
8:53 PM,27.0,23.0,85,30.27,10.0,Calm,Calm,-,N/A,,Clear,0,2013-03-01 02:53:00
9:53 PM,27.0,23.0,85,30.28,10.0,Calm,Calm,-,N/A,,Mostly Cloudy,0,2013-03-01 03:53:00
10:53 PM,28.9,24.1,82,30.28,10.0,ENE,6.9,-,N/A,,Overcast,70,2013-03-01 04:53:00
11:53 PM,28.9,25.0,85,30.27,10.0,East,3.5,-,N/A,,Overcast,80,2013-03-01 05:53:00